Hourly Data Report for October 04, 2017

All times are specified in Local Standard Time (LST). Add 1 hour to adjust for Daylight Saving Time where and when it is observed.

PETAWAWA AWOS 2
ONTARIO

45°57'00.000" N
77°19'00.000" W
130.10 m
6106396
71625
YWA

Download Data

Hourly Data (October 2017)
Hourly Data Report for October 4, 2017
Temp Definition
°C
Dew Point Temp Definition
°C
Rel Hum Definition
%
Wind Dir Definition
10's deg

Wind Spd Definition
km/h
Visibility Definition
km
Stn Press Definition
kPa
Hmdx Definition


Wind Chill Definition


Weather Definition


TIME
00:00 17.4 12.0 71 13 15 14.5 100.78     LegendNANA
01:00 17.5 11.3 67 11 17 14.5 100.75     LegendNANA
02:00 17.4 12.5 73 12 11 14.5 100.70     LegendNANA
03:00 17.6 12.5 72 14 15 14.5 100.60     LegendNANA
04:00 17.7 11.7 68 14 9 14.5 100.57     LegendNANA
05:00 17.6 13.0 74 12 13 14.5 100.49     LegendNANA
06:00 17.7 13.0 74 14 9 14.5 100.43     LegendNANA
07:00 17.8 13.0 74 14 7 14.5 100.41     LegendNANA
08:00 19.1 13.8 71 13 6 14.5 100.38     LegendNANA
09:00 22.7 16.9 70 20 13 14.5 100.30 28   LegendNANA
10:00 22.2 17.0 72 24 11 14.5 100.23 27   LegendNANA
11:00 21.4 17.8 80 23 13 14.5 100.14 27   Moderate Rain
12:00 20.7 18.4 87 24 11 14.5 100.05 27   LegendNANA
13:00 21.8 18.8 83 22 17 14.5 99.90 28   LegendNANA
14:00 21.6 19.1 86 21 19 14.5 99.78 28   Rain
15:00
16:00                   LegendNANA
17:00 20.9 15.8 73 27 19 14.5 99.72 25   LegendNANA
18:00 19.7 14.8 73 27 15 14.5 99.79     LegendNANA
19:00 18.1 13.6 75 27 17 14.5 99.91     LegendNANA
20:00 16.9 13.1 78 27 15 14.5 100.03     LegendNANA
21:00 15.6 12.6 82 28 17 14.5 100.10     LegendNANA
22:00 14.9 12.1 83 27 11 14.5 100.11     LegendNANA
23:00 13.8 11.6 87 26 9 14.5 100.18     LegendNANA

Notes on Data Quality.

Legend

  • E = Estimated
  • M = Missing
  • NA = Not Available
  • ‡ = Partner data that is not subject to review by the National Climate Archives
Date modified: